STOCKHOLM/BROMMA current weather conditions

sailwx.info

Wind from 080 at 4 knots

Air temperature -1.0° C
Visibility: greater than 2.5 NM
Dewpoint -1.0° C
Present weather: Light snow.

Last reported at 2018-Feb-19 00:50 UTC.
Time now 2018-Feb-19 02:25 UTC

Location: N 59°21' E 017°57'.
View on Google Maps.

See reports from other nearby stations

  
Tides and Currents Weather Stations Pressure Air Temp Water Temp Dewpoint Dewpoint Depression Visibility Wind Speed Wind Dir Waves Ship Positions
date/time (UTC)wind fromknots sea level pressurealtimeterstation pressurevisibilityair tempwater tempwave heightnotes
2018-Feb-19 01:50 080 4 1.1-1.0 Light snow.
2018-Feb-19 01:20 070 5 2.7-1.0 Light rain snow.
2018-Feb-19 00:50 080 4 2.5-1.0 Light snow.
2018-Feb-19 00:20 090 4 1.8-1.0 Light snow.
2018-Feb-18 23:50 110 4 3.8-1.0 Precipitation.
2018-Feb-18 23:20 100 4 3.8-1.0 Light ice pellets.
2018-Feb-18 22:50 100 4 3.2-1.0 Precipitation.
2018-Feb-18 22:20 100 4 2.4-1.0 Light ice pellets.
2018-Feb-18 21:50 100 4 1.3-1.0 Light snow.
2018-Feb-18 21:20 090 4 0.9-1.0 Light snow.
2018-Feb-18 20:50 070 2 1.4-1.0 Ice pellets.
2018-Feb-18 20:20 070 1 1.9-1.0 Light drizzle snow.
2018-Feb-18 19:50 070 1 1.4-1.0 Light drizzle snow.
2018-Feb-18 19:20 2.3-1.0 Light snow.
2018-Feb-18 18:50 1.2-1.0 Light snow.
2018-Feb-18 18:20 1.6-1.0 Light snow.
2018-Feb-18 17:50 2.7-1.0 Light snow.
2018-Feb-18 17:20 1.2-1.0 Light snow.
2018-Feb-18 16:50 1.4-1.0 Light snow.
2018-Feb-18 16:20 1.3-1.0 Light snow.
2018-Feb-18 15:50 2.2-1.0 Light snow.
2018-Feb-18 15:20 2.2-1.0 Light snow.
2018-Feb-18 14:50 0.9-1.0 Light snow.
2018-Feb-18 14:20 2.7-1.0 Light drizzle snow.
2018-Feb-18 13:50 2.3-1.0 Light snow.
2018-Feb-18 13:20 230 2 2.7-1.0 Light drizzle snow.
2018-Feb-18 12:50 240 4 2.2-0.0 Light snow.
2018-Feb-18 12:20 240 4 2.7-0.0 Light snow.
2018-Feb-18 11:50 240 5 2.6-1.0 Light snow.
2018-Feb-18 11:20 280 2 3.2-1.0 Light snow.
2018-Feb-18 10:50 280 4 2.7-1.0 Light snow.
2018-Feb-18 10:20 290 6 2.7-1.0 Light snow.
2018-Feb-18 09:50 270 6 3.2-1.0 Light snow.
2018-Feb-18 09:20 280 6 5.4-1.0
2018-Feb-18 08:50 270 5 5.4-1.0
2018-Feb-18 08:20 280 6 5.4-1.0
2018-Feb-18 07:50 270 6 5.4-1.0
2018-Feb-18 07:20 270 5 5.4-1.0
2018-Feb-18 06:50 270 5 5.4-1.0
2018-Feb-18 06:20 270 5 5.4-1.0
2018-Feb-18 05:50 270 6 5.4-1.0
2018-Feb-18 05:20 260 5 5.4-1.0
2018-Feb-18 04:50 270 6 5.4-1.0
2018-Feb-18 04:20 270 5 5.4-1.0
2018-Feb-18 03:50 250 5 4.9-1.0 Light snow.
2018-Feb-18 03:20 250 4 4.9-1.0 Light snow.
2018-Feb-18 02:50 260 4 5.4-1.0
2018-Feb-18 02:20 250 4 5.4-1.0
2018-Feb-18 01:50 240 4 4.3-1.0 Light snow.
2018-Feb-18 01:20 240 5 5.4-1.0
2018-Feb-18 00:50 240 4 5.4-1.0
2018-Feb-18 00:20 240 4 5.4-1.0
2018-Feb-17 23:50 230 4 5.4-1.0
2018-Feb-17 23:20 230 4 5.4-1.0
2018-Feb-17 22:50 240 4 5.4-1.0
2018-Feb-17 22:20 240 4 5.4-1.0 Precipitation.
2018-Feb-17 21:50 250 2 5.4-2.0
2018-Feb-17 21:20 270 4 5.4-2.0
2018-Feb-17 20:50 5.4-2.0
2018-Feb-17 20:20 250 2 5.4-2.0
2018-Feb-17 19:50 230 2 5.4-2.0
2018-Feb-17 19:20 270 5 5.4-2.0
2018-Feb-17 18:50 250 2 5.4-2.0
2018-Feb-17 18:20 220 1 5.4-2.0
2018-Feb-17 17:50 5.4-1.0
2018-Feb-17 17:20 300 1 5.4-1.0
2018-Feb-17 16:50 5.4-1.0
2018-Feb-17 16:20 290 2 5.4-1.0
2018-Feb-17 15:50 280 5 5.4-0.0
2018-Feb-17 15:20 280 4 5.4-0.0
2018-Feb-17 14:50 5.4 1.0
2018-Feb-17 14:20 5.4 1.0
2018-Feb-17 13:50 5.4 1.0
2018-Feb-17 13:20 5.4 1.0
2018-Feb-17 12:50 5.4 1.0
2018-Feb-17 12:20 5.4 1.0
2018-Feb-17 11:50 5.4-0.0
2018-Feb-17 11:20 5.4-0.0
2018-Feb-17 10:50 5.4-0.0
2018-Feb-17 10:20 040 4 5.4-0.0
2018-Feb-17 09:50 050 4 5.4-0.0
2018-Feb-17 09:20 060 5 5.4-1.0
2018-Feb-17 08:50 060 4 5.4-1.0
2018-Feb-17 08:20 050 4 5.4-1.0
2018-Feb-17 07:50 5.4-2.0
2018-Feb-17 07:20 070 1 5.4-2.0
2018-Feb-17 06:50 060 2 5.4-2.0
2018-Feb-17 06:20 060 4 5.4-1.0
2018-Feb-17 05:50 070 5 5.4-1.0
2018-Feb-17 05:20 040 4 5.4-1.0
2018-Feb-17 04:50 060 4 5.4-1.0
2018-Feb-17 04:20 5.4-1.0
2018-Feb-17 03:50 060 1 5.4-1.0
2018-Feb-17 03:20 040 2 5.4-1.0
2018-Feb-17 02:50 030 2 5.4-1.0 Light snow.
2018-Feb-17 02:20 060 4 5.4-1.0